Location: Betpouey
(42.8833°N, 0.0333°E)
Time: 21:19:19
(UTC+00:00)

Cosmos 1535 Rocket - Pass Details

Date: 01 December 2020
Orbit: 949 x 1004 km, 83.0° (Epoch: 18 January)

Event Time Altitude Azimuth Distance (km) Brightness Sun altitude
Rises 18:37:13 0° 355° (N) 3,633 7.5 -23.3°
Reaches altitude 10° 18:39:45 10° 359° (N) 2,682 6.7 -23.8°
Maximum altitude 18:45:49 62° 80° (E) 1,062 4.3 -24.9°
Drops below altitude 10° 18:51:51 10° 160° (SSE) 2,673 6.7 -26.0°
Sets 18:54:22 0° 164° (SSE) 3,620 7.4 -26.4°
